Location: Steinbach
(49.5170°N, 96.6830°W)
Time: 19:10:42
(UTC-06:00)

Daily predictions for brighter satellites

Satellite Brightness Start Highest point End
(mag) Time Altitude Azimuth Time Altitude Azimuth Time Altitude Azimuth
Cosmos 1634 Rocket 4.0 17:33:41 10° N 17:39:53 70° ENE 17:46:02 10° SSE
Cosmos 1125 Rocket 3.7 17:36:06 10° NNW 17:41:20 83° WSW 17:46:31 10° SSE
SJ-7 4.3 17:37:53 10° SSE 17:41:52 68° ENE 17:45:52 10° N
SMAP 3.0 17:38:49 10° SSE 17:43:29 80° ENE 17:48:10 10° NNW
Cosmos 1766 Rocket 4.4 17:39:55 10° SSW 17:44:17 55° WNW 17:48:40 10° N
Cosmos 371 Rocket 3.3 17:39:37 10° S 17:44:22 65° ESE 17:49:09 10° NNE
USA 116 3.5 17:42:56 10° NNE 17:46:01 43° E 17:48:59 10° S
Orbus 7S? 3.9 17:44:03 10° NW 17:47:11 47° NNE 17:53:15 10° ESE
Cosmos 841 Rocket 3.7 17:42:18 10° SSW 17:47:35 83° WNW 17:52:53 10° NNE
CZ-4 R/B 1.6 17:46:18 10° S 17:50:10 73° WSW 17:54:08 10° NNW
Cosmos 1707 Rocket 4.4 17:47:27 10° N 17:51:12 27° ENE 17:54:55 10° SE
Molniya-1 4.5 17:48:17 10° SW 17:51:26 83° NW 17:57:18 10° NE
SJ-6B 4.3 17:49:17 10° ESE 17:52:09 19° ENE 17:55:03 10° NNE
Cosmos 1300 2.6 17:49:36 10° N 17:53:28 75° E 17:57:18 10° SSE
COSMO-SKYMED 1 3.6 17:50:27 10° NE 17:54:10 27° E 17:57:51 10° SSE
SJ-12 4.4 17:50:57 10° S 17:55:03 67° W 17:59:11 10° NNW
Cosmos 2151 3.2 17:52:11 10° SSE 17:56:13 48° E 18:00:17 10° NNE
YAOGAN 1 2.6 17:52:39 10° SSE 17:56:59 88° WSW 18:01:21 10° NNW
Cosmos 2369 Rocket 3.6 17:52:59 10° N 17:57:00 19° NE 18:00:58 10° E
Cosmos 2237 Rocket 2.3 17:52:32 10° S 17:58:03 59° ESE 18:03:37 10° NE
MONITOR-E 4.4 17:55:16 10° SSE 17:58:21 50° ENE 18:01:27 10° N
Thor Agena Rocket 3.7 17:54:40 10° NNE 17:59:52 59° ESE 18:04:58 10° S
Meteor 1-27 4.3 17:55:32 10° N 18:01:21 69° ENE 18:07:11 10° SSE
Meteor 2-10 3.9 17:59:08 10° N 18:04:15 70° ENE 18:09:28 10° SSE
SL-16 R/B 3.0 18:01:45 10° SSE 18:06:42 32° ESE 18:11:40 10° NE
Cosmos 44 Rocket 3.5 18:02:00 10° SW 18:07:08 79° NW 18:12:09 10° NE
SPOT 3 Rocket 3.9 18:02:58 10° S 18:08:07 72° WSW 18:13:19 10° NNW
COSMOS 2428 3.6 18:03:08 10° SW 18:08:40 50° NW 18:14:14 10° NNE
FREGAT/IRIS 4.1 18:08:17 10° ESE 18:10:27 18° ENE 18:12:38 10° NNE
SL-14 R/B 3.2 18:09:18 10° S 18:13:14 73° E 18:17:16 10° NNE
Cosmos 1484 Rocket 2.8 18:11:14 10° SSE 18:15:12 81° ENE 18:19:15 10° N
Cosmos 2297 3.7 18:09:29 10° NNW 18:15:15 88° ENE 18:20:59 10° SSE
Cosmos 1340 Rocket 3.0 18:13:30 10° S 18:17:16 47° E 18:21:04 10° NNE
Resurs 01 Rocket 2.9 18:14:09 10° ESE 18:17:24 20° ENE 18:20:39 10° NNE
Cosmos 304 Rocket 4.1 18:13:45 10° S 18:18:18 44° ESE 18:22:52 10° NE
Meteor 1-28 Rocket 4.0 18:15:03 10° NNE 18:18:22 30° E 18:21:39 10° SSE
CZ-4C R/B 3.8 18:13:35 10° NW 18:18:54 26° NNE 18:23:27 14° ENE
Lacrosse 4 Rocket 1.6 18:16:34 10° NNW 18:20:30 45° NE 18:24:24 10° SE
Cosmos 1151 Rocket 3.9 18:17:12 10° NNW 18:21:23 54° W 18:25:34 10° S
Cosmos 2279 Rocket 4.0 18:19:54 10° N 18:26:10 90° ESE 18:32:24 10° S
Cosmos 1869 4.1 18:24:02 10° N 18:27:39 30° ENE 18:31:14 10° SE
Blok-2BL 3.9 18:24:42 10° NNW 18:27:50 36° NE 18:29:17 23° E
Aureole 2 Rocket 2.7 18:26:42 10° SSW 18:30:35 84° ESE 18:34:47 10° NNE
SL-16 R/B 4.5 18:29:52 10° WNW 18:32:37 13° NNW 18:35:22 10° N
FENGYUN 3A 4.2 18:29:03 10° SE 18:33:48 34° ENE 18:38:36 10° N
METEOR-M 4.2 18:28:44 10° SE 18:33:57 57° ENE 18:39:12 10° N
IDEFIX/ARIANE 42P 4.4 18:30:35 10° SSW 18:35:20 35° W 18:40:08 10° NNW
Cosmos 540 Rocket 3.7 18:31:27 10° SSW 18:36:38 72° WNW 18:41:49 10° NNE
Cosmos 2058 3.0 18:35:53 10° SSW 18:39:58 78° W 18:44:06 10° N
Cosmos 2084 4.2 18:37:10 10° WSW 18:40:48 40° NW 18:43:28 16° NNE
Cosmos 2360 Rocket 4.3 18:36:59 10° W 18:41:01 20° NW 18:45:04 10° N
ATLAS 3B R/B 4.0 18:36:17 10° NW 18:42:10 26° N 18:45:53 17° NE
NOAA 12 4.0 18:37:15 10° SSE 18:42:28 70° ENE 18:47:44 10° N
SKYMED 2 3.5 18:38:06 10° NNE 18:42:28 78° ESE 18:46:49 10° S
Cosmos 2242 Rocket 3.8 18:38:35 10° N 18:42:51 46° ENE 18:47:09 10° SSE
Cosmos 1805 Rocket 3.5 18:40:06 10° S 18:44:32 72° E 18:49:00 10° NNE
Lacrosse 5 2.8 18:40:12 10° WNW 18:44:53 35° N 18:47:19 23° NE
ATLAS 5 CENTAUR R/B 3.3 18:40:09 10° NW 18:45:02 29° NNE 18:47:23 23° ENE
Cosmos 1461 2.9 18:42:36 10° SSW 18:46:42 60° SE 18:48:33 29° NE
Cosmos 1980 4.2 18:41:19 10° SW 18:46:57 62° WNW 18:52:36 10° NNE
USA 215 3.3 18:41:11 10° ESE 18:47:46 90° NNW 18:54:22 10° WNW
Nadezhda 4 Rocket 4.0 18:44:09 10° S 18:50:16 59° E 18:56:29 10° NNE
Cosmos 1626 2.0 18:47:25 10° S 18:51:08 65° E 18:54:09 15° NNE
Lacrosse 5 rocket 4.4 18:53:41 10° WSW 18:55:14 12° SW 18:56:46 10° SSW
BREEZE-M DEB (TANK) 2.0 18:54:46 10° SW 18:56:48 38° S 18:56:48 38° S
Sich 1 3.0 18:53:02 10° S 18:57:25 65° E 19:01:50 10° NNE
Cosmos 44 4.0 18:53:31 10° WSW 18:58:34 52° NW 19:02:07 18° NNE
Cosmos 1356 Rocket 3.1 18:55:58 10° S 18:59:57 76° E 19:03:04 16° NNE
Aureole 1 Rocket 4.2 18:56:12 10° S 19:01:49 53° ESE 19:09:03 10° NNE
Cosmos 1943 Rocket 3.2 18:58:03 10° NNW 19:02:36 25° NE 19:02:44 25° NE
Cosmos 2219 Rocket 3.6 18:58:51 10° WSW 19:03:59 35° NW 19:09:08 10° NNE
ALOS 2.3 19:00:09 10° SSE 19:04:41 55° ENE 19:09:16 10° N
Cosmos 1633 Rocket 2.9 19:03:28 10° S 19:07:52 73° E 19:11:33 15° NNE
Cosmos 1455 2.6 19:05:23 10° NNW 19:09:10 63° W 19:12:56 10° S
Cosmos 2333 Rocket 3.4 19:05:48 10° WSW 19:11:03 39° NW 19:16:22 10° NNE
Cosmos 1603 4.1 19:06:17 10° S 19:11:26 39° ESE 19:12:04 37° E
Cosmos 1092 Rocket 4.0 19:06:28 10° S 19:12:42 63° E 19:18:58 10° NNE
FengYun 1-2 T 4.1 19:08:59 10° SSE 19:14:30 71° ENE 19:20:00 10° NNW
Abrixas 3.1 19:12:02 10° WSW 19:14:25 49° SW 19:14:25 49° SW
Cosmos 292 Rocket 4.4 19:10:34 10° S 19:14:08 35° SE 19:14:08 35° SE
Cosmos 972 Rocket 4.2 19:09:58 10° NNW 19:15:01 50° ENE 19:16:48 36° ESE
BREEZE-M DEB (TANK) 4.4 18:54:41 10° W 19:16:14 90° S 19:18:38 38° E
Helios 1A 4.4 19:19:57 24° NNE 19:19:57 24° NNE 19:21:54 10° N
Cosmos 1242 Rocket 2.5 19:16:08 10° NNW 19:19:08 64° N 19:19:08 64° N
HJ-1C 4.4 19:21:48 37° N 19:21:48 37° N 19:24:00 10° NNW
Cosmos 1184 Rocket 2.9 19:18:45 10° SSW 19:22:05 72° WNW 19:22:06 72° WNW
Cosmos 1703 4.4 19:19:08 10° SSW 19:22:51 43° WNW 19:26:36 10° N
CENTAUR R/B 3.9 19:16:58 10° W 19:22:57 35° NNW 19:27:32 18° NNE
SJ-6B 3.6 19:22:25 10° S 19:26:27 55° W 19:30:33 10° NNW
Cosmos 1862 Rocket 3.4 19:22:11 10° N 19:26:36 73° ENE 19:27:19 59° SE
COSMO-SKYMED 1 4.0 19:26:24 10° N 19:30:25 37° WNW 19:34:25 10° SW
Spot 2 Rocket 3.3 19:26:25 10° SSE 19:31:28 86° ENE 19:36:32 10° NNW
Cosmos 2056 Rocket 4.2 19:26:48 10° NNW 19:30:39 37° NNE 19:30:39 37° NNE
USA 229 DEB 3.7 19:25:41 10° SSW 19:32:25 63° SE 19:34:38 43° ENE
USA 229 3.7 19:25:47 10° SSW 19:32:31 62° SE 19:34:42 43° ENE
Iridium 4 Rocket 3.0 19:30:54 10° S 19:35:18 83° W 19:37:08 33° N
Cosmos 2195 Rocket 4.4 19:29:50 10° S 19:35:50 62° E 19:41:56 10° NNE
Cosmos 1624 Rocket 4.4 19:31:11 10° NNW 19:35:37 45° NNE 19:35:37 45° NNE
Cosmos 2084 Rocket 3.6 19:33:49 10° NW 19:36:52 56° NW 19:36:52 56° NW
Cosmos 2369 Rocket 2.0 19:36:22 10° NNW 19:42:05 73° ENE 19:42:51 63° ESE
Cosmos 2237 Rocket 3.8 19:37:31 10° WSW 19:42:28 31° NW 19:46:54 13° NNE
SL-16 R/B 3.0 19:45:08 10° SW 19:50:37 50° NW 19:53:50 24° N
Resurs 1-3 3.8 19:53:23 68° WSW 19:53:23 68° WSW 19:57:46 10° NNW
Resurs 01 Rocket 2.2 19:49:46 14° S 19:53:31 57° W 19:57:54 10° NNW
Cosmos 1371 Rocket 4.1 19:51:06 10° NNW 19:55:32 64° N 19:55:32 64° N
Cosmos 1417 Rocket 4.3 19:50:06 10° N 19:56:21 80° E 19:58:04 50° SSE
Cosmos 923 Rocket 3.9 19:52:15 10° SSW 19:57:25 85° W 19:57:25 85° W
Lacrosse 4 Rocket 3.6 19:55:46 10° WNW 19:58:58 23° WSW 20:01:46 12° SSW
Meteor 1-26 Rocket 4.3 19:57:18 10° N 20:02:11 64° N 20:02:11 64° N
Cosmos 1680 Rocket 4.0 19:58:37 10° SSW 20:02:30 51° SSW 20:02:30 51° SSW
Cosmos 1867 3.7 20:02:27 10° NW 20:07:15 69° NW 20:07:15 69° NW
CZ-4C R/B 3.0 20:02:23 10° NW 20:08:40 51° NNE 20:08:40 51° NNE
Cosmos 1655 Rocket 4.0 20:03:34 10° S 20:16:13 10° N 20:16:19 10° N
Cosmos 1627 Rocket 4.5 20:05:56 10° SSW 20:12:07 78° W 20:18:16 10° N
Lacrosse 5 3.2 20:23:34 10° NW 20:26:32 34° NW 20:26:32 34° NW
ATLAS 5 CENTAUR R/B 2.9 20:24:41 10° NW 20:28:58 52° NNW 20:28:58 52° NNW
S3M 4.2 20:24:11 10° NNW 20:29:52 69° NW 20:29:52 69° NW
ATLAS 3B R/B 3.5 20:27:59 10° NW 20:33:09 39° N 20:33:09 39° N
Cosmos 2026 Rocket 4.5 20:33:08 10° SSW 20:39:12 56° WNW 20:45:13 10° N
Cosmos 1943 Rocket 3.6 20:41:23 10° NNW 20:44:17 32° NW 20:44:17 32° NW
CENTAUR R/B 4.3 21:09:51 10° NW 21:14:44 27° N 21:14:44 27° N
Cosmos 2369 Rocket 4.4 21:21:24 10° NW 21:24:42 20° W 21:24:42 20° W
CZ-4C R/B 4.4 21:50:58 10° NW 21:53:52 27° WNW 21:53:52 27° WNW
